World > North America > United States > Mississippi

Hourly Dubard, MS Regional Weather

Feedback E-mail the Weather

Quick WX

Dubard, MS Weather Maps

°F °C°F °C
Dubard Weather Map
UTC Time: 6/28/2022, 18:46
Your Time:

Dubard, MS Regional Weather

Expires:202206281900;;341088
ASUS44 KJAN 281810
RWRMS 

MISSISSIPPI HOURLY WEATHER ROUNDUP
NATIONAL WEATHER SERVICE JACKSON MS
100 PM CDT TUE JUN 28 2022

NOTE: "FAIR: INDICATES FEW OR NO CLOUDS BELOW 12,000 FEET WITH NO
SIGNIFICANT WEATHER AND/OR OBSTRUCTIONS TO VISIBILITY.


MSZ001>002-007>008-010>013-018>021-025>028-034>036-281900-
NORTHWEST MISSISSIPPI
  
CITY           SKY/WX    TMP DP  RH WIND       PRES   REMARKS
BATESVILLE     FAIR      86  63  45 CALM      30.15F                  
CLARKSDALE     SUNNY     84  61  45 VRB5G12   30.16F                  
CLEVELAND      FAIR      83  65  53 NE5       30.15F                  
GREENWOOD      SUNNY     90  65  43 NE7       30.13F HX  92           
6HR MIN TEMP:  72; 6HR MAX TEMP:  90;                                

GREENVILLE     SUNNY     85  67  54 N8        30.15S                  
6HR MIN TEMP:  68; 6HR MAX TEMP:  86;                                

OLIVE BRANCH   MOSUNNY   84  61  45 NE7       30.18S                  
OXFORD         SUNNY     84  59  42 VRB6      30.17F                  
TUNICA         MOSUNNY   85  58  39 N5        30.17F                  
WINONA         FAIR      88  65  46 NE9       30.13F                  
$$


SKY/WX - Weather  TMP - Temperature  DP - Dew Point  RH - Humidity
WIND - Wind Direction/Speed PRES - Barometric Pressure VSB - Visibility
WCI - Wind Chill Index E13G22 Wind - East Wind 13 mph/Gusts of 22 mph

Trending Headlines

Dubard Radar Loop



Dubard Quick Facts


National Two Day Weather Forecast


E-mail the Dubard Weather Forecast

Voice your opinion or tell us about page issues...